Tracking 18844 objects as of 21-Nov-2017
HD Live streaming from Space Station
objects crossing your sky now

COSMOS 875

Track COSMOS 875 now!
10-day predictions
COSMOS 875 is classified as:


NORAD ID: 9592
Int'l Code: 1976-118E
Perigee: 1,443.7 km
Apogee: 1,470.6 km
Inclination: 74.0 °
Period: 114.9 minutes
Semi major axis: 7828 km
RCS: 0.6944 m2 (medium)
Launch date: December 7, 1976
Source: Commonwealth of Independent States (former USSR) (CIS)
Launch site: PLESETSK MISSILE AND SPACE COMPLEX (PKMTR)
aabbcc
Your satellite tracking list
Your tracking list is empty




NASA's NSSDC Master Catalog

Two Line Element Set (TLE):
1 09592U 76118E   17324.65198824 -.00000000  00000-0  10017-3 0  9991
2 09592  74.0334  39.3127 0017123 152.1527 318.6730 12.53470213874140
Source of the keplerian elements: AFSPC